Temp
79 79 79 78 79 80 79 79 80 79 80 81 81 81 81 81 79 79 78 78 77 77 77 78 78 78 77 78 77 77 77 77 78 77 77 77 77 77 76 77 77 77 77 77 77 77 78 79 80 80 79 79 79 78 78 78 78 80 78 78 78 78 77
78 79 81 80 79 80 80 80 81 81 80 81 81 80 81 81 79 79 78 78 78 77 77 78 78 78 78 78 78 77 77 77 78 79 78 77 78 77 78 78 78 77 77 78 78 78 79 79 80 79 79 79 79 78 79 78 78 78 78 77 77 77 78
76 78 79 79 79 79 79 80 81 82 81 81 81 81 81 80 80 79 78 78 77 77 78 78 78 78 78 78 77 77 78 77 78 79 78 78 78 79 79 78 78 78 79 79 79 79 80 80 79 79 79 79 80 78 78 78 78 78 78 77 77 77 77
75 75 78 80 80 80 80 80 81 82 82 81 82 81 81 80 81 80 80 79 78 77 77 78 79 79 78 78 78 77 78 78 79 79 80 80 79 80 79 78 79 80 79 79 81 81 83 80 80 78 81 79 79 79 79 79 79 78 77 77 77 77 77
76 74 76 77 78 78 79 79 80 81 81 82 82 82 82 81 82 81 81 81 80 78 79 79 80 80 79 79 80 79 79 78 79 79 80 80 80 80 80 80 80 80 80 81 81 80 80 80 80 79 79 78 79 78 79 79 78 77 77 76 77 78 77
76 75 74 77 77 79 80 81 82 82 81 82 82 82 82 82 82 81 81 81 80 80 80 79 80 79 79 80 80 80 79 79 79 79 80 79 79 80 80 80 81 81 81 81 82 82 80 80 80 80 80 80 80 81 80 79 79 79 77 77 77 78 79
73 73 73 75 77 78 80 80 82 82 83 83 82 83 83 83 82 82 82 81 81 79 79 79 80 80 79 80 80 79 78 79 79 79 80 80 80 80 80 81 81 81 82 81 81 82 81 81 80 80 81 81 79 81 80 78 79 79 77 77 77 77 77
73 72 71 74 77 79 80 80 82 83 83 83 81 81 82 83 82 82 81 80 80 80 80 80 80 80 79 80 80 80 80 80 80 81 80 81 81 80 81 81 80 81 81 81 81 82 82 81 82 81 81 81 79 79 80 79 78 80 78 77 77 77 80
74 71 69 70 74 80 81 80 82 83 82 82 81 81 82 82 81 81 82 81 80 79 79 80 80 81 80 80 80 79 80 81 81 81 81 82 81 82 82 82 82 82 82 82 82 82 82 82 83 80 80 80 78 78 79 78 79 79 79 78 77 77 78
66 68 69 68 69 69 75 81 81 81 80 81 80 80 82 82 82 82 81 81 80 79 80 81 80 80 79 79 80 80 81 80 81 82 82 82 82 83 83 84 83 82 82 83 83 83 82 82 83 81 80 80 79 78 78 79 79 79 79 79 78 78 78
68 68 68 69 69 72 72 75 78 79 79 79 80 81 82 81 81 81 80 80 80 80 81 81 80 80 79 79 79 79 80 81 82 82 82 82 83 84 84 85 84 83 83 83 83 83 83 82 81 81 80 81 80 79 78 79 80 79 80 80 80 80 80
69 69 69 69 71 72 72 75 75 77 79 79 79 80 80 80 80 80 80 80 81 80 80 81 80 80 79 79 79 78 79 80 81 82 82 83 83 84 84 85 84 83 83 83 84 83 83 83 82 81 80 81 81 80 79 79 80 80 79 80 81 80 81
68 69 69 70 70 71 71 73 73 72 74 78 79 80 80 80 79 80 79 80 81 81 81 80 80 79 79 79 80 78 79 79 80 81 83 82 82 84 84 83 84 85 84 83 84 84 83 84 82 81 82 81 81 81 80 79 80 79 79 79 80 80 80
68 68 69 69 69 70 69 68 71 73 73 73 75 79 80 80 80 80 80 79 80 80 80 80 80 79 79 79 79 78 78 79 80 81 82 82 81 81 84 84 84 84 84 83 83 84 84 84 83 82 82 82 82 81 81 80 80 79 79 79 80 80 79
65 66 66 67 68 68 68 70 70 71 71 73 74 72 72 75 78 79 80 81 80 80 80 80 79 79 79 79 78 78 79 79 80 80 80 82 81 80 81 83 83 83 82 82 83 85 85 85 84 82 81 82 81 81 82 81 81 80 80 80 79 79 79
64 64 65 66 66 66 66 67 68 69 70 71 74 75 74 74 75 76 77 78 80 80 80 80 79 79 79 79 79 79 79 78 79 79 78 79 80 80 80 81 82 82 79 81 83 82 83 83 83 83 82 82 80 80 82 82 83 83 84 83 81 78 80
63 64 65 66 67 67 66 67 67 68 68 69 71 74 74 74 75 76 78 77 75 75 77 79 78 78 78 78 79 79 78 77 77 77 76 76 78 78 77 78 80 81 81 82 82 82 81 82 82 83 83 83 82 80 81 78 74 69 66 71 77 80 78
63 64 66 66 66 66 66 66 67 68 68 68 69 71 71 72 75 75 74 74 74 74 76 76 76 76 76 75 75 75 75 73 74 75 74 73 74 75 76 77 77 78 78 79 80 79 81 81 81 81 82 83 81 80 75 72 68 64 66 68 70 75 77
64 64 65 65 65 65 65 66 66 67 67 68 69 68 69 69 72 70 71 72 73 74 75 76 76 74 73 73 73 74 74 73 74 73 73 73 72 71 73 75 77 77 77 78 78 78 77 77 78 77 77 78 75 75 72 70 65 63 65 65 65 69 76
64 65 65 65 66 66 65 66 66 67 68 68 69 70 70 70 70 70 72 73 74 74 73 73 74 74 74 73 73 73 72 72 73 73 72 71 70 70 72 73 73 73 73 74 74 75 74 75 75 75 75 75 74 71 69 67 63 62 63 64 65 66 71
64 65 64 65 65 66 66 66 66 66 68 69 69 70 71 70 71 71 71 72 73 72 71 70 71 72 73 73 72 71 71 72 71 71 71 71 71 70 71 71 72 72 72 72 72 72 72 72 73 74 74 74 72 70 68 66 60 60 62 62 64 64 72
65 65 65 65 65 65 65 66 66 66 67 69 69 70 71 70 71 71 70 71 71 70 71 72 72 72 71 71 71 71 71 71 71 71 71 71 71 70 70 71 71 71 71 71 70 71 72 72 73 72 71 71 71 69 66 64 57 58 59 60 63 65 74
66 66 66 67 67 66 67 67 67 68 68 68 69 70 70 71 71 71 71 70 70 69 69 69 70 70 70 70 71 71 71 71 71 71 71 71 71 70 71 72 72 72 72 70 70 70 70 70 70 69 69 69 68 67 64 64 59 55 56 57 59 66 74
66 66 67 67 67 67 68 68 68 69 68 68 68 69 70 70 70 70 69 69 69 69 68 68 68 69 69 69 70 70 70 71 71 70 70 70 71 71 71 72 73 72 73 70 70 69 69 68 67 66 67 67 66 67 65 64 60 55 54 55 58 66 74
65 65 67 67 67 66 66 67 68 69 69 68 68 69 70 69 69 69 68 68 68 68 68 69 68 69 69 69 70 70 70 70 71 70 70 68 69 71 71 72 71 72 71 70 69 69 68 68 65 65 65 65 66 69 64 63 62 55 54 54 55 64 75
64 65 65 66 67 67 67 68 68 67 67 67 67 69 69 69 69 68 67 67 67 67 67 68 68 69 68 68 69 69 69 70 71 71 71 69 70 70 70 71 71 70 69 69 68 67 66 66 64 62 62 63 63 64 63 62 61 59 53 52 54 59 73
64 65 65 67 67 68 66 66 66 66 66 66 67 68 68 68 67 66 67 66 66 66 66 68 69 69 68 68 69 69 68 68 68 69 70 70 70 70 70 70 69 69 68 68 67 65 64 63 63 62 62 62 63 63 64 64 62 60 54 53 53 56 68
65 66 67 67 70 69 67 67 66 67 67 67 67 68 68 68 66 66 66 65 65 66 67 68 67 68 68 69 68 68 68 68 68 69 69 70 70 69 69 69 69 69 69 68 65 64 63 63 62 61 61 61 62 63 63 66 66 62 57 54 53 53 54
61 62 63 65 66 68 69 67 67 67 67 68 68 68 68 67 66 66 66 65 65 67 68 68 68 68 68 68 68 68 68 68 68 68 69 68 68 67 67 68 68 68 67 65 64 63 62 61 61 61 60 60 61 62 63 63 65 63 61 56 53 53 55
62 62 63 66 67 67 67 66 67 67 67 67 67 67 68 67 66 66 65 64 67 68 68 67 67 67 66 67 67 67 68 69 68 68 67 67 67 66 66 65 66 65 65 64 63 61 60 60 60 60 60 59 60 62 62 63 62 64 63 60 55 53 53
60 61 62 63 65 66 65 65 65 66 66 66 66 66 66 68 67 66 65 66 68 67 67 67 67 66 65 64 64 65 66 65 65 66 66 66 66 65 65 65 65 63 64 63 62 61 60 60 62 61 61 61 60 61 63 63 62 63 65 64 61 56 54
61 61 62 62 63 65 64 63 63 64 65 65 66 66 66 66 66 66 66 67 68 67 68 68 66 66 65 64 64 64 64 63 63 63 63 64 64 62 62 63 63 64 64 63 62 62 61 61 63 63 63 62 63 62 61 61 61 60 62 65 64 61 58
59 59 60 60 62 62 61 61 62 62 63 62 63 65 66 66 66 66 66 67 68 68 67 67 67 66 65 63 63 63 63 62 61 60 60 60 60 61 60 60 60 61 61 63 64 64 64 65 65 64 64 63 62 61 61 59 59 59 58 59 60 60 60
57 58 58 58 60 60 60 60 60 60 60 60 61 63 64 65 65 66 66 67 68 68 67 67 67 65 64 64 64 64 64 63 64 61 58 57 56 55 57 58 58 57 56 56 58 63 63 64 64 63 63 61 60 60 59 57 57 57 56 57 58 58 58
56 57 57 59 59 59 59 60 60 59 60 60 60 61 62 62 63 64 64 65 65 67 67 67 68 65 64 63 63 62 63 61 60 59 57 55 53 52 51 51 54 57 56 57 56 57 63 63 61 62 62 63 61 60 59 59 58 56 52 51 49 52 56
56 57 57 57 58 59 60 60 60 60 60 59 60 60 61 61 62 62 64 64 64 64 66 66 65 63 63 63 62 61 61 60 59 58 58 57 55 54 53 50 46 48 54 55 55 51 49 53 59 60 60 57 56 57 60 59 57 49 42 41 41 41 42
57 57 57 58 59 59 60 61 62 61 60 59 59 59 59 60 60 61 62 62 63 63 63 64 64 64 63 63 62 62 62 60 58 57 56 56 56 56 56 55 53 45 43 47 51 47 44 45 47 50 55 58 54 52 49 49 44 41 41 40 40 40 40
56 56 57 58 59 59 59 60 61 60 60 58 59 58 59 59 59 59 61 61 61 62 62 63 63 63 63 62 62 64 62 59 59 58 57 55 55 56 56 55 54 54 47 43 44 44 42 43 45 46 48 51 54 56 51 45 42 40 39 39 39 38 39
MSLP
1013.53 1013.65 1013.57 1013.72 1014.04 1014.24 1014.57 1014.72 1014.84 1015.21 1015.36 1015.53 1015.72 1016.04 1016.28 1016.48 1016.72 1016.97 1017.28 1017.57 1017.89 1018.24 1018.24 1018.21 1018.33 1018.48 1018.72 1018.72 1018.68 1018.72 1018.80 1019.01 1019.16 1019.48 1019.60 1019.72 1019.77 1019.97 1020.21 1020.21 1020.28 1020.28 1020.24 1020.45 1020.45 1020.45 1020.28 1020.21 1020.24 1020.24 1020.28 1020.28 1020.36 1020.33 1020.33 1020.24 1020.33 1020.28 1020.28 1020.28 1020.33 1020.41 1020.41
1013.68 1013.57 1013.45 1013.60 1013.89 1014.12 1014.21 1014.33 1014.48 1014.84 1015.12 1015.24 1015.48 1015.77 1016.01 1016.33 1016.57 1016.89 1017.09 1017.28 1017.53 1017.84 1018.01 1018.09 1018.24 1018.41 1018.53 1018.65 1018.60 1018.60 1018.80 1018.89 1018.97 1019.16 1019.36 1019.57 1019.60 1019.72 1019.72 1019.92 1020.04 1020.12 1020.12 1020.09 1020.09 1020.09 1020.09 1020.12 1020.12 1020.21 1020.28 1020.24 1020.28 1020.24 1020.28 1020.28 1020.28 1020.28 1020.33 1020.36 1020.45 1020.48 1020.45
1013.53 1013.36 1013.28 1013.36 1013.68 1013.84 1014.09 1014.21 1014.21 1014.41 1014.77 1015.01 1015.21 1015.53 1015.80 1016.09 1016.24 1016.57 1016.89 1017.21 1017.53 1017.68 1017.80 1017.97 1018.04 1018.21 1018.28 1018.45 1018.65 1018.65 1018.65 1018.77 1018.89 1019.09 1019.41 1019.53 1019.60 1019.60 1019.60 1019.68 1019.80 1019.92 1019.89 1019.89 1019.92 1020.01 1019.89 1020.04 1020.01 1020.04 1020.16 1020.28 1020.24 1020.28 1020.24 1020.28 1020.33 1020.28 1020.28 1020.36 1020.48 1020.53 1020.57
1013.36 1013.33 1013.09 1012.89 1013.04 1013.28 1013.60 1013.84 1014.04 1014.12 1014.28 1014.48 1014.77 1015.09 1015.45 1015.77 1015.84 1016.09 1016.41 1016.77 1017.24 1017.57 1017.84 1017.84 1017.89 1018.09 1018.16 1018.36 1018.53 1018.57 1018.60 1018.57 1018.60 1018.80 1018.97 1019.09 1019.33 1019.36 1019.60 1019.72 1019.77 1019.77 1019.97 1019.92 1019.77 1019.77 1019.77 1019.84 1019.97 1020.04 1020.04 1020.21 1020.24 1020.21 1020.21 1020.24 1020.24 1020.28 1020.33 1020.41 1020.57 1020.53 1020.57
1013.04 1013.09 1013.09 1013.12 1013.24 1013.45 1013.53 1013.72 1013.80 1013.89 1014.12 1014.12 1014.28 1014.45 1014.84 1015.28 1015.57 1015.89 1016.21 1016.41 1016.65 1017.12 1017.21 1017.41 1017.53 1017.72 1017.84 1017.97 1018.16 1018.28 1018.41 1018.45 1018.48 1018.53 1018.65 1018.77 1018.89 1019.12 1019.45 1019.65 1019.72 1019.80 1019.77 1019.68 1019.65 1019.72 1019.80 1019.89 1020.01 1020.09 1020.09 1020.12 1020.24 1020.24 1020.28 1020.21 1020.24 1020.24 1020.33 1020.41 1020.60 1020.57 1020.60
1012.97 1013.16 1013.21 1013.12 1013.12 1013.12 1013.16 1013.21 1013.28 1013.48 1013.80 1014.12 1014.33 1014.53 1014.68 1015.01 1015.28 1015.80 1016.01 1016.36 1016.65 1016.72 1016.92 1017.21 1017.45 1017.60 1017.89 1017.80 1017.92 1018.09 1018.16 1018.24 1018.24 1018.28 1018.45 1018.57 1018.80 1019.09 1019.24 1019.33 1019.41 1019.57 1019.68 1019.68 1019.57 1019.60 1019.65 1019.77 1019.89 1020.01 1020.12 1020.12 1020.16 1020.24 1020.24 1020.28 1020.24 1020.28 1020.41 1020.48 1020.60 1020.60 1020.72
1013.04 1013.04 1013.12 1013.01 1012.80 1012.92 1012.89 1012.97 1013.01 1013.09 1013.21 1013.48 1013.72 1013.92 1014.33 1014.72 1015.12 1015.45 1015.68 1016.16 1016.41 1016.89 1017.04 1017.16 1017.21 1017.36 1017.57 1017.65 1017.80 1017.97 1018.21 1018.24 1018.24 1018.28 1018.24 1018.41 1018.57 1018.84 1018.97 1019.04 1019.12 1019.24 1019.24 1019.33 1019.53 1019.41 1019.65 1019.68 1019.72 1019.77 1019.89 1020.01 1020.16 1020.21 1020.28 1020.33 1020.33 1020.24 1020.41 1020.57 1020.68 1020.65 1020.60
1012.89 1013.09 1012.92 1012.72 1012.60 1012.45 1012.60 1012.72 1012.77 1012.84 1013.01 1013.21 1013.72 1014.12 1014.41 1014.53 1014.84 1015.28 1015.60 1015.80 1016.12 1016.48 1016.72 1016.97 1017.12 1017.16 1017.33 1017.41 1017.57 1017.80 1017.97 1018.04 1018.01 1018.09 1018.12 1018.33 1018.45 1018.68 1018.77 1018.84 1018.92 1018.92 1019.04 1019.28 1019.21 1019.21 1019.41 1019.48 1019.53 1019.57 1019.68 1019.92 1020.04 1020.09 1020.16 1020.21 1020.24 1020.24 1020.41 1020.65 1020.72 1020.68 1020.57
1013.21 1014.16 1014.45 1014.16 1013.33 1012.53 1012.09 1012.36 1012.41 1012.65 1012.97 1013.28 1013.60 1013.92 1014.12 1014.41 1014.72 1015.01 1015.28 1015.60 1015.89 1016.21 1016.45 1016.45 1016.65 1016.72 1016.97 1017.21 1017.45 1017.60 1017.65 1017.80 1017.97 1018.01 1018.12 1018.24 1018.33 1018.48 1018.53 1018.57 1018.65 1018.65 1018.92 1019.04 1019.04 1018.97 1019.04 1019.21 1019.33 1019.45 1019.57 1019.72 1019.84 1019.97 1020.09 1020.12 1020.21 1020.16 1020.28 1020.48 1020.60 1020.65 1020.60
1014.72 1014.41 1014.57 1014.57 1014.24 1014.41 1013.80 1012.21 1012.12 1012.53 1012.92 1013.24 1013.65 1013.84 1013.97 1014.16 1014.45 1014.68 1014.97 1015.28 1015.57 1015.97 1016.09 1016.21 1016.36 1016.57 1016.84 1017.09 1017.28 1017.36 1017.53 1017.72 1017.77 1017.92 1018.04 1018.21 1018.16 1018.28 1018.24 1018.28 1018.36 1018.41 1018.60 1018.68 1018.77 1018.97 1018.89 1018.89 1019.09 1019.24 1019.45 1019.65 1019.77 1019.84 1019.92 1019.97 1020.04 1020.04 1020.09 1020.21 1020.33 1020.45 1020.45
1013.24 1013.33 1013.89 1014.60 1014.65 1014.57 1014.65 1014.09 1012.77 1012.65 1012.65 1012.92 1013.24 1013.41 1013.60 1013.89 1014.21 1014.48 1014.77 1014.97 1015.28 1015.48 1015.57 1015.77 1015.97 1016.36 1016.68 1016.92 1017.24 1017.36 1017.45 1017.60 1017.65 1017.84 1017.97 1018.01 1017.97 1018.04 1018.01 1018.04 1018.12 1018.21 1018.36 1018.48 1018.65 1018.65 1018.77 1018.84 1018.84 1019.16 1019.36 1019.57 1019.65 1019.77 1019.84 1019.84 1019.80 1019.92 1019.97 1019.97 1019.92 1020.04 1020.12
1012.84 1012.68 1013.09 1013.53 1013.77 1014.24 1014.41 1013.89 1013.28 1012.80 1012.60 1012.77 1012.84 1013.09 1013.33 1013.57 1013.77 1014.04 1014.33 1014.53 1014.57 1015.01 1015.28 1015.41 1015.60 1016.01 1016.45 1016.77 1017.12 1017.28 1017.36 1017.36 1017.45 1017.60 1017.72 1017.77 1017.77 1017.77 1017.72 1017.72 1017.80 1017.97 1018.09 1018.12 1018.45 1018.53 1018.57 1018.72 1018.89 1019.04 1019.28 1019.28 1019.33 1019.45 1019.57 1019.57 1019.60 1019.68 1019.77 1019.77 1019.77 1019.84 1019.89
1012.84 1012.92 1012.97 1013.21 1013.41 1013.84 1014.09 1013.80 1013.68 1013.57 1013.21 1012.65 1012.57 1012.72 1012.92 1013.21 1013.53 1013.72 1013.97 1014.21 1014.24 1014.36 1014.68 1014.92 1015.28 1015.65 1016.12 1016.48 1016.77 1017.04 1017.09 1017.12 1017.16 1017.21 1017.33 1017.45 1017.48 1017.36 1017.41 1017.48 1017.53 1017.68 1017.92 1017.92 1018.04 1018.28 1018.57 1018.57 1018.72 1018.77 1018.92 1019.04 1019.09 1019.24 1019.33 1019.36 1019.36 1019.45 1019.53 1019.60 1019.65 1019.77 1019.84
1014.12 1013.92 1013.72 1013.48 1013.57 1014.01 1014.28 1014.16 1013.48 1013.01 1012.97 1013.21 1013.09 1012.68 1012.60 1012.72 1012.92 1013.24 1013.57 1013.89 1013.92 1014.04 1014.33 1014.60 1014.97 1015.36 1015.72 1016.04 1016.36 1016.57 1016.68 1016.68 1016.65 1016.80 1016.89 1016.97 1017.09 1017.16 1017.12 1017.21 1017.33 1017.45 1017.48 1017.68 1017.92 1018.04 1018.12 1018.36 1018.53 1018.53 1018.57 1018.68 1018.80 1018.84 1018.92 1019.09 1019.24 1019.28 1019.33 1019.41 1019.48 1019.60 1019.77
1014.97 1015.04 1015.24 1015.57 1014.92 1014.57 1014.36 1014.04 1013.41 1012.92 1012.80 1012.72 1012.72 1013.24 1013.57 1013.33 1013.01 1012.92 1013.04 1013.16 1013.41 1013.72 1014.01 1014.16 1014.68 1015.12 1015.41 1015.65 1015.89 1016.01 1016.01 1016.12 1016.28 1016.41 1016.60 1016.77 1016.92 1017.09 1017.16 1017.12 1017.21 1017.28 1017.57 1017.68 1017.65 1017.60 1017.68 1017.77 1018.01 1018.28 1018.48 1018.45 1018.53 1018.65 1018.72 1018.92 1019.09 1019.09 1019.21 1019.36 1019.45 1019.45 1019.60
1014.92 1015.12 1014.97 1015.01 1015.53 1015.57 1015.36 1015.16 1014.36 1013.45 1012.84 1012.65 1012.65 1012.84 1013.04 1013.45 1013.16 1013.04 1013.21 1013.28 1013.24 1013.53 1013.65 1014.01 1014.53 1014.89 1015.16 1015.33 1015.33 1015.36 1015.57 1015.80 1016.01 1016.24 1016.45 1016.65 1016.77 1016.84 1016.92 1017.01 1017.09 1017.53 1018.09 1017.80 1017.45 1017.65 1017.53 1017.60 1017.68 1017.92 1018.16 1018.45 1018.57 1018.57 1018.68 1018.77 1018.77 1018.80 1018.84 1018.92 1019.16 1019.36 1019.41
1014.72 1014.48 1014.48 1014.41 1014.48 1014.84 1015.36 1015.57 1015.45 1015.36 1014.77 1013.89 1013.16 1012.84 1012.97 1013.09 1013.01 1012.72 1012.80 1013.12 1013.72 1014.04 1013.89 1013.84 1014.36 1014.60 1014.77 1014.92 1014.89 1015.09 1015.36 1015.72 1015.92 1016.04 1016.28 1016.28 1016.36 1016.45 1016.68 1016.77 1016.80 1016.89 1017.04 1017.04 1017.16 1017.33 1017.36 1017.45 1017.68 1017.84 1017.92 1018.09 1018.45 1018.68 1018.68 1018.77 1018.89 1018.92 1018.97 1019.01 1019.04 1019.09 1019.28
1015.21 1015.01 1015.04 1015.04 1015.09 1015.16 1015.28 1015.28 1015.21 1015.21 1014.77 1014.92 1014.92 1014.33 1013.80 1013.57 1012.89 1013.01 1013.24 1013.21 1013.36 1013.72 1013.80 1013.84 1013.97 1014.28 1014.60 1014.80 1014.97 1015.12 1015.41 1015.65 1015.80 1016.01 1016.09 1016.12 1016.21 1016.28 1016.36 1016.48 1016.68 1016.84 1016.92 1017.04 1017.21 1017.21 1017.16 1017.41 1017.53 1017.65 1017.72 1017.84 1018.28 1018.53 1018.72 1018.89 1019.01 1018.97 1018.92 1018.97 1018.97 1019.01 1019.12
1015.48 1015.33 1015.24 1015.21 1015.36 1015.57 1015.60 1015.60 1015.33 1015.24 1015.24 1014.84 1014.65 1014.92 1015.04 1015.01 1014.33 1013.28 1013.16 1013.16 1013.21 1013.21 1013.48 1013.68 1013.89 1014.28 1014.68 1014.84 1014.97 1015.16 1015.28 1015.41 1015.65 1015.80 1015.92 1016.01 1016.12 1016.21 1016.28 1016.36 1016.57 1016.77 1016.97 1017.09 1016.97 1017.09 1017.33 1017.36 1017.48 1017.72 1017.72 1017.89 1018.24 1018.57 1018.80 1018.97 1019.12 1019.04 1018.92 1018.92 1018.92 1018.97 1019.01
1015.60 1015.57 1015.53 1015.41 1015.24 1015.04 1014.89 1015.45 1015.68 1015.28 1015.09 1014.92 1014.57 1014.41 1014.60 1015.12 1015.04 1014.28 1012.77 1012.57 1012.84 1013.16 1013.77 1014.12 1014.21 1014.24 1014.65 1014.84 1015.04 1015.24 1015.36 1015.53 1015.60 1015.68 1015.77 1015.97 1016.12 1016.24 1016.41 1016.53 1016.72 1016.77 1016.80 1016.97 1017.01 1017.09 1017.24 1017.33 1017.53 1017.60 1017.77 1017.92 1018.16 1018.53 1018.80 1018.92 1019.09 1019.04 1018.97 1018.89 1018.84 1018.89 1018.97
1015.84 1015.84 1015.84 1015.68 1015.48 1015.09 1014.97 1015.24 1015.53 1015.80 1015.53 1015.21 1014.77 1014.60 1014.72 1015.24 1015.21 1015.21 1014.45 1013.28 1013.16 1013.48 1013.92 1014.65 1015.21 1014.89 1014.57 1014.84 1015.16 1015.36 1015.48 1015.65 1015.72 1015.77 1015.89 1015.92 1016.12 1016.36 1016.60 1016.77 1016.89 1017.09 1017.16 1017.09 1017.04 1017.12 1017.28 1017.45 1017.65 1017.77 1017.84 1018.01 1018.21 1018.48 1018.89 1019.09 1019.21 1019.12 1019.04 1018.92 1018.80 1018.80 1018.92
1016.04 1015.89 1015.89 1015.57 1015.09 1014.84 1015.01 1015.24 1015.57 1015.65 1015.80 1015.60 1015.21 1015.04 1014.92 1014.84 1014.72 1015.24 1015.53 1014.97 1014.33 1014.09 1013.80 1014.01 1014.53 1015.21 1015.16 1015.21 1015.57 1015.77 1015.80 1015.80 1015.89 1015.77 1015.80 1016.04 1016.33 1016.65 1016.84 1016.92 1017.01 1017.28 1017.41 1017.41 1017.41 1017.33 1017.28 1017.48 1017.65 1017.89 1018.09 1018.21 1018.28 1018.48 1018.77 1019.04 1019.21 1019.16 1019.09 1018.97 1018.80 1018.77 1018.80
1016.04 1015.89 1015.72 1015.53 1015.36 1015.12 1014.53 1014.48 1014.80 1015.01 1015.09 1015.28 1015.48 1015.41 1015.21 1014.89 1014.57 1014.57 1014.97 1015.41 1015.53 1015.41 1015.04 1014.92 1014.97 1015.01 1015.16 1015.48 1015.60 1015.72 1015.84 1016.01 1016.21 1016.33 1016.28 1016.41 1016.65 1016.89 1017.01 1017.04 1017.12 1017.36 1017.45 1017.60 1017.65 1017.65 1017.65 1017.72 1017.89 1018.09 1018.28 1018.45 1018.60 1018.72 1018.97 1019.09 1019.21 1019.12 1019.04 1018.97 1018.89 1018.89 1018.77
1016.01 1015.72 1015.60 1015.57 1015.36 1015.24 1014.72 1014.28 1014.36 1014.48 1014.41 1014.89 1015.36 1015.41 1015.21 1015.16 1015.16 1015.09 1015.04 1015.33 1015.80 1016.12 1016.24 1016.04 1015.97 1015.72 1015.57 1015.45 1015.53 1015.72 1015.84 1015.92 1016.16 1016.53 1016.68 1016.84 1016.97 1017.01 1017.01 1016.92 1016.97 1017.28 1017.36 1017.60 1017.80 1017.92 1017.92 1017.92 1018.16 1018.41 1018.57 1018.72 1018.89 1018.92 1019.04 1019.21 1019.24 1019.12 1018.97 1018.92 1018.89 1018.89 1018.80
1016.16 1016.01 1015.77 1015.60 1015.53 1015.60 1015.45 1014.77 1014.36 1014.48 1014.41 1014.53 1015.45 1015.65 1015.28 1014.97 1015.01 1015.48 1015.80 1015.65 1015.68 1015.77 1015.97 1015.97 1016.12 1016.41 1016.45 1016.24 1016.01 1015.92 1015.97 1015.97 1016.04 1016.16 1016.45 1017.01 1017.24 1016.80 1016.60 1016.45 1016.72 1016.84 1017.01 1017.36 1017.65 1017.97 1018.04 1018.16 1018.41 1018.72 1018.84 1018.92 1019.01 1018.97 1019.04 1019.12 1019.12 1019.04 1018.89 1018.80 1018.77 1018.84 1018.65
1016.33 1016.16 1016.04 1015.77 1015.57 1015.45 1015.33 1014.80 1014.48 1014.72 1015.21 1015.60 1015.48 1015.36 1015.68 1015.24 1014.92 1015.36 1015.72 1015.72 1015.57 1015.84 1016.01 1015.77 1015.57 1016.04 1016.12 1016.01 1015.84 1015.92 1016.16 1016.24 1016.28 1016.21 1016.33 1016.65 1016.65 1016.41 1016.24 1016.24 1016.53 1016.92 1017.36 1017.57 1017.60 1017.97 1018.16 1018.33 1018.48 1018.72 1019.04 1019.12 1019.16 1019.21 1019.21 1019.16 1019.21 1019.12 1018.89 1018.77 1018.60 1018.57 1018.57
1016.04 1015.97 1016.09 1015.89 1015.77 1015.36 1015.36 1015.16 1015.01 1015.24 1015.57 1015.92 1015.92 1015.41 1015.65 1015.89 1015.80 1015.92 1015.89 1015.77 1015.72 1016.01 1016.04 1015.77 1015.53 1016.01 1016.12 1015.80 1015.80 1016.04 1016.28 1016.24 1016.33 1016.53 1016.45 1016.28 1016.12 1016.01 1016.04 1016.21 1016.60 1016.89 1017.28 1017.53 1017.68 1017.92 1018.24 1018.45 1018.60 1018.80 1019.12 1019.24 1019.28 1019.28 1019.24 1019.24 1019.33 1019.33 1019.12 1019.01 1018.84 1018.57 1018.36
1016.28 1016.09 1015.89 1015.77 1015.72 1015.77 1015.80 1015.77 1015.68 1015.57 1015.57 1015.65 1015.97 1015.97 1015.89 1015.97 1016.28 1016.36 1016.16 1016.01 1016.16 1016.04 1015.57 1015.45 1015.72 1016.16 1016.16 1015.97 1015.97 1016.16 1016.33 1016.41 1016.41 1016.33 1016.28 1016.16 1016.04 1016.09 1016.12 1016.09 1016.36 1016.68 1016.84 1017.16 1017.60 1017.89 1018.12 1018.33 1018.60 1018.89 1019.16 1019.28 1019.28 1019.33 1019.33 1019.24 1019.28 1019.41 1019.41 1019.36 1019.24 1019.12 1018.97
1017.01 1016.80 1016.65 1016.53 1016.45 1016.16 1016.04 1016.21 1016.21 1016.16 1016.12 1016.09 1016.12 1016.24 1016.21 1016.12 1016.41 1016.45 1016.24 1016.21 1016.09 1015.65 1015.48 1015.68 1016.04 1016.21 1016.12 1015.97 1016.04 1016.04 1016.21 1016.28 1016.36 1016.41 1016.33 1016.33 1016.33 1016.41 1016.57 1016.53 1016.45 1016.60 1016.89 1017.24 1017.65 1017.97 1018.24 1018.36 1018.57 1018.80 1019.12 1019.33 1019.45 1019.45 1019.36 1019.36 1019.45 1019.57 1019.68 1019.65 1019.48 1019.45 1019.41
1017.16 1017.04 1016.89 1016.72 1016.60 1016.57 1016.41 1016.45 1016.36 1016.36 1016.28 1016.24 1016.21 1016.21 1016.12 1016.04 1016.24 1016.28 1016.28 1016.36 1016.01 1015.84 1015.89 1016.04 1016.16 1016.36 1016.33 1016.33 1016.41 1016.41 1016.53 1016.60 1016.60 1016.65 1016.68 1016.68 1016.72 1016.80 1017.04 1017.16 1017.12 1017.04 1017.09 1017.24 1017.53 1017.89 1018.33 1018.65 1018.80 1019.01 1019.24 1019.41 1019.57 1019.53 1019.48 1019.48 1019.57 1019.68 1019.77 1019.80 1019.77 1019.77 1019.92
1017.57 1017.48 1017.36 1017.24 1017.04 1016.80 1016.77 1016.80 1016.80 1016.68 1016.57 1016.36 1016.24 1016.16 1016.12 1016.01 1016.21 1016.45 1016.65 1016.53 1016.24 1016.33 1016.28 1016.28 1016.28 1016.48 1016.68 1016.65 1016.53 1016.60 1016.89 1017.01 1017.12 1017.21 1017.16 1017.09 1016.97 1017.16 1017.28 1017.36 1017.48 1017.80 1017.97 1017.89 1018.12 1018.41 1018.60 1019.04 1019.21 1019.33 1019.45 1019.48 1019.65 1019.68 1019.60 1019.65 1019.68 1019.77 1019.80 1019.84 1019.89 1019.92 1020.04
1017.57 1017.48 1017.41 1017.33 1017.33 1017.16 1017.09 1017.01 1016.97 1016.92 1016.97 1016.84 1016.60 1016.45 1016.33 1016.28 1016.28 1016.60 1016.68 1016.53 1016.48 1016.48 1016.45 1016.41 1016.53 1016.72 1016.60 1016.45 1016.60 1016.89 1017.04 1017.36 1017.72 1017.89 1017.89 1017.72 1017.65 1017.77 1017.77 1017.77 1017.84 1018.01 1018.28 1018.45 1018.80 1019.21 1019.33 1019.24 1019.28 1019.45 1019.48 1019.68 1019.77 1019.92 1020.09 1020.09 1020.04 1020.12 1020.12 1020.04 1020.09 1020.12 1020.21
1017.92 1017.80 1017.72 1017.72 1017.68 1017.48 1017.45 1017.41 1017.45 1017.53 1017.53 1017.53 1017.24 1016.97 1016.80 1016.72 1016.68 1016.72 1016.68 1016.68 1016.68 1016.68 1016.68 1016.72 1016.77 1016.92 1016.92 1016.97 1017.04 1017.33 1017.48 1017.68 1018.01 1018.21 1018.41 1018.53 1018.41 1018.24 1018.24 1018.24 1018.16 1018.12 1018.41 1018.60 1018.68 1019.04 1019.41 1019.65 1019.72 1019.72 1019.77 1019.80 1020.01 1020.16 1020.33 1020.45 1020.45 1020.48 1020.53 1020.48 1020.45 1020.48 1020.53
1018.12 1018.01 1017.89 1017.80 1017.77 1017.72 1017.84 1017.92 1017.97 1018.09 1018.04 1018.04 1017.84 1017.60 1017.45 1017.36 1017.41 1017.24 1017.04 1016.92 1016.84 1016.89 1016.89 1016.97 1017.01 1017.21 1017.36 1017.48 1017.60 1017.77 1017.80 1017.97 1018.12 1018.41 1018.77 1019.16 1019.33 1019.24 1018.89 1018.72 1018.72 1018.72 1018.89 1018.92 1019.01 1018.92 1019.24 1019.53 1019.68 1019.84 1020.04 1020.36 1020.33 1020.24 1020.48 1020.72 1020.92 1020.97 1020.80 1020.80 1020.68 1020.72 1020.65
1018.33 1018.24 1018.09 1017.97 1018.01 1017.97 1018.16 1018.21 1018.36 1018.41 1018.41 1018.48 1018.33 1018.16 1018.09 1018.01 1017.89 1017.68 1017.45 1017.28 1017.09 1016.97 1017.12 1017.24 1017.24 1017.36 1017.48 1017.65 1017.77 1018.01 1018.16 1018.36 1018.48 1018.68 1019.01 1019.45 1019.80 1020.24 1020.24 1019.97 1019.48 1019.28 1019.41 1019.57 1019.57 1019.28 1019.12 1019.28 1019.45 1019.57 1019.84 1020.12 1020.36 1020.28 1020.60 1020.72 1020.92 1021.21 1021.60 1021.48 1021.45 1021.04 1020.77
1018.41 1018.36 1018.28 1018.21 1018.09 1018.16 1018.28 1018.33 1018.33 1018.45 1018.53 1018.60 1018.53 1018.48 1018.48 1018.45 1018.33 1018.12 1017.84 1017.57 1017.36 1017.21 1017.28 1017.48 1017.65 1017.80 1017.92 1017.97 1018.16 1018.36 1018.53 1018.77 1018.92 1019.01 1019.12 1019.28 1019.65 1019.84 1020.21 1020.53 1020.53 1020.28 1019.77 1019.72 1019.80 1019.60 1019.33 1019.28 1019.65 1019.80 1019.84 1020.21 1020.48 1020.53 1020.33 1020.68 1021.12 1021.68 1021.80 1021.77 1021.77 1021.89 1021.77
1018.57 1018.57 1018.57 1018.41 1018.33 1018.41 1018.48 1018.53 1018.48 1018.48 1018.60 1018.68 1018.65 1018.68 1018.68 1018.65 1018.57 1018.36 1018.16 1017.92 1017.77 1017.60 1017.57 1017.68 1017.92 1018.12 1018.24 1018.33 1018.53 1018.60 1018.72 1018.97 1019.24 1019.41 1019.45 1019.45 1019.45 1019.48 1019.72 1020.04 1020.21 1020.45 1020.53 1020.36 1020.21 1019.92 1019.89 1019.84 1019.84 1020.01 1020.04 1019.84 1020.36 1021.04 1021.01 1021.12 1021.60 1021.89 1022.04 1022.12 1022.21 1022.21 1021.97
1018.60 1018.60 1018.60 1018.57 1018.57 1018.65 1018.72 1018.72 1018.72 1018.77 1018.84 1018.80 1018.77 1018.80 1018.77 1018.77 1018.68 1018.60 1018.41 1018.28 1018.12 1017.97 1017.89 1017.92 1018.04 1018.36 1018.48 1018.57 1018.65 1018.72 1018.92 1019.16 1019.36 1019.60 1019.80 1020.01 1019.84 1019.68 1019.68 1019.80 1020.09 1020.41 1020.72 1020.80 1020.53 1020.36 1020.33 1020.36 1020.28 1020.28 1020.36 1020.48 1020.53 1020.80 1021.45 1021.80 1022.01 1022.21 1022.33 1022.33 1022.28 1021.92 1021.68
Wind_Speed
6 8 9 10 13 14 14 14 14 13 13 13 12 13 13 12 11 11 11 11 11 10 9 9 9 7 7 7 6 5 5 6 6 6 6 6 6 6 6 6 6 6 5 6 6 6 5 4 5 5 4 5 4 4 4 4 3 4 3 3 2 1 2
7 9 11 10 12 14 15 15 14 12 13 13 12 13 12 13 11 11 12 12 12 12 11 10 10 9 8 7 6 6 6 6 7 6 6 5 4 5 6 6 6 6 5 5 5 5 5 5 5 5 5 4 5 4 4 3 3 4 3 3 3 2 2
8 8 10 11 13 13 14 13 13 13 13 13 13 13 13 13 12 13 12 12 11 11 10 10 10 9 8 8 7 7 7 6 6 8 7 7 7 7 5 5 5 5 6 5 5 5 5 5 5 5 5 5 5 4 4 4 3 3 3 3 3 3 3
9 7 10 11 12 14 15 14 14 13 13 14 15 15 14 14 13 12 12 13 13 11 12 10 10 9 8 9 8 7 7 7 7 8 8 7 7 7 6 5 5 5 5 6 6 6 5 5 5 5 6 5 4 4 4 4 4 3 3 3 3 2 3
10 6 7 10 10 12 14 14 14 14 14 15 15 15 15 14 13 12 11 12 13 14 13 12 10 9 8 8 7 7 7 8 7 7 6 6 6 6 7 7 7 7 6 6 6 6 5 5 6 6 6 5 5 4 4 4 4 3 3 3 3 3 4
11 9 8 11 11 12 14 15 16 15 15 15 15 14 14 15 13 14 12 12 11 11 10 10 10 9 9 8 7 7 6 6 6 6 6 6 6 6 7 7 7 7 6 7 6 6 6 6 6 6 6 5 5 6 5 4 4 3 3 3 4 4 4
6 6 6 9 12 11 13 14 15 15 16 15 15 14 13 14 14 14 12 13 13 12 11 11 11 9 8 8 7 7 8 8 7 7 6 6 6 7 7 7 6 6 6 5 7 7 6 6 6 7 7 6 5 6 5 5 5 4 3 4 4 4 3
5 4 5 8 9 12 13 13 14 15 14 13 13 13 14 13 12 13 13 13 12 11 11 12 11 10 9 8 8 8 9 8 7 7 6 7 7 7 7 7 6 6 5 6 6 6 6 6 5 5 7 6 6 6 6 6 6 5 4 4 5 4 4
1 8 8 7 2 7 15 13 14 15 16 15 15 14 15 13 13 13 13 13 12 12 12 11 11 10 9 9 9 9 8 8 8 7 7 8 7 8 8 7 7 6 7 6 5 5 6 6 6 6 6 5 5 6 6 6 6 5 5 5 5 6 4
13 12 13 12 12 15 8 11 14 14 14 14 13 14 15 13 13 13 12 12 12 13 12 11 10 10 9 9 9 9 8 8 8 8 8 8 7 8 7 7 7 6 7 7 6 6 6 7 7 6 6 6 6 5 5 6 6 6 6 7 6 6 5
8 10 8 3 3 5 9 7 10 13 14 14 13 14 13 14 13 13 12 12 12 12 12 11 10 10 10 9 10 9 9 9 9 9 8 8 7 9 8 8 8 6 7 7 7 7 7 6 5 6 6 7 7 6 6 6 7 6 6 6 6 6 6
9 11 11 11 6 3 7 7 4 9 12 11 13 13 12 13 14 13 13 14 13 13 12 12 11 11 10 10 10 9 10 10 9 10 10 8 7 9 8 8 7 6 5 7 7 7 7 7 6 6 8 8 7 6 6 6 7 7 6 6 6 6 6
5 9 11 11 10 3 5 3 3 2 2 9 13 12 13 14 14 14 13 14 13 13 14 13 12 12 12 11 11 9 10 10 10 10 10 9 7 7 6 7 7 7 6 5 7 8 7 7 7 6 7 8 7 7 7 6 6 6 5 4 4 6 6
8 3 2 6 8 3 3 3 6 6 5 3 1 7 14 13 14 14 14 15 14 13 13 11 12 13 13 12 12 11 11 10 10 10 9 8 6 6 7 7 8 8 7 6 7 7 8 8 8 7 6 7 7 7 6 6 5 5 5 4 4 5 5
8 10 11 9 5 1 1 6 6 6 5 4 6 5 4 2 9 12 14 14 14 14 14 13 13 13 13 13 13 13 12 11 9 8 8 8 8 7 6 8 8 8 6 7 7 8 8 8 8 7 7 6 7 6 5 6 6 5 5 5 5 5 5
5 5 7 6 5 8 7 8 5 2 5 4 6 8 7 4 6 9 10 10 13 14 12 12 13 13 13 13 14 12 11 10 9 8 8 8 9 9 7 7 9 10 9 10 7 6 6 6 7 8 8 7 6 5 6 6 5 4 8 8 6 5 4
1 2 5 6 7 3 5 8 10 14 12 5 3 6 7 7 5 8 9 7 3 2 2 10 11 12 13 14 12 11 9 8 8 7 8 8 8 8 6 7 7 8 9 9 8 8 7 7 7 7 7 8 6 5 4 2 2 2 3 2 0 3 4
1 3 3 3 4 6 7 7 7 5 3 8 12 5 1 3 6 7 9 9 10 9 7 9 11 12 11 8 7 8 8 8 8 8 7 6 6 6 6 6 6 7 7 7 8 7 6 7 7 6 7 6 8 7 4 4 2 3 3 2 2 1 2
5 3 4 5 4 6 6 6 5 6 5 5 5 7 12 15 7 11 11 11 10 9 10 10 10 10 9 7 8 8 9 9 9 9 8 6 4 3 4 5 6 7 6 7 5 4 5 5 4 4 4 6 7 7 4 3 2 2 3 3 3 3 2
4 6 8 8 6 3 6 6 3 4 5 4 7 8 9 13 8 3 9 13 10 10 4 3 5 10 9 8 7 7 6 6 6 7 7 6 5 4 4 4 3 3 3 4 4 5 4 4 5 5 5 6 7 6 4 4 1 1 2 3 4 5 4
4 7 8 7 7 4 2 3 5 1 3 4 5 5 4 6 7 4 6 3 10 8 10 7 1 1 7 8 6 6 6 5 5 6 5 5 6 5 4 4 4 4 3 4 6 7 7 6 6 4 4 5 6 7 4 2 3 2 3 3 4 4 4
6 4 4 2 6 4 3 5 5 5 3 5 5 4 2 3 3 5 2 9 4 2 6 9 9 5 2 5 4 3 2 2 3 4 5 5 6 6 5 3 3 5 3 3 2 3 5 4 4 5 5 4 5 6 5 2 4 4 4 5 5 4 4
6 7 6 4 2 2 5 5 5 7 7 4 3 3 3 1 5 8 7 6 7 8 8 6 3 4 5 6 5 4 2 1 1 2 1 1 4 6 6 5 4 5 3 4 3 3 4 5 4 4 5 4 3 4 4 3 5 6 6 6 7 4 4
3 5 6 5 5 4 4 8 9 10 12 10 8 7 4 6 6 7 10 9 7 7 7 7 8 7 6 5 4 3 3 3 1 2 2 4 4 5 4 4 4 5 5 6 6 5 5 5 6 6 5 5 5 3 4 3 5 8 7 7 7 7 4
4 4 4 5 6 6 3 6 9 10 12 12 9 4 5 8 9 8 7 8 8 6 5 4 5 1 4 4 4 3 2 1 2 2 3 7 5 3 7 9 9 8 7 6 6 6 5 6 7 6 6 5 5 7 6 3 4 9 8 7 7 6 4
4 4 4 3 4 3 3 5 10 10 10 8 9 7 5 6 10 10 8 8 7 7 4 4 1 5 4 3 1 1 3 3 2 1 4 9 8 7 6 4 4 4 5 5 6 7 6 7 7 8 6 5 5 5 4 5 5 7 9 7 6 6 4
3 3 3 4 5 5 7 7 8 9 8 5 4 7 6 5 7 7 6 6 7 7 3 1 3 2 2 1 1 1 4 4 3 2 1 7 8 8 6 4 5 7 6 6 6 7 7 8 7 8 7 5 5 5 5 5 5 7 11 11 10 9 1
6 6 5 4 6 6 6 7 8 8 8 6 5 4 6 7 8 6 6 7 7 4 3 6 6 4 3 3 1 3 5 4 4 4 4 4 5 6 7 6 5 5 9 6 7 9 9 9 8 8 7 5 5 5 6 8 11 7 12 14 14 14 15
6 6 6 7 6 5 5 6 7 6 5 4 4 2 3 7 9 7 7 8 6 5 6 6 5 4 5 5 4 5 6 6 7 5 4 5 4 1 1 0 5 7 7 9 9 9 9 9 8 9 8 7 6 5 6 6 7 11 11 14 16 17 17
6 6 6 6 5 4 5 6 5 5 4 4 3 3 3 5 7 7 9 8 4 6 7 7 7 6 7 8 7 6 7 7 8 7 6 7 7 8 8 7 5 5 7 8 8 9 9 7 8 8 8 8 7 6 6 5 6 9 11 10 14 14 15
4 4 4 4 5 4 4 5 5 5 5 5 4 4 4 4 7 7 7 4 4 5 6 6 8 8 9 9 10 10 8 8 8 7 7 6 7 7 6 7 7 7 5 5 5 5 8 7 6 7 7 7 7 6 4 4 5 5 9 12 11 12 12
4 4 4 4 4 4 3 4 5 5 6 7 7 6 5 5 3 5 4 2 3 3 5 7 9 8 8 9 9 8 9 9 9 9 8 7 7 7 6 6 6 6 5 6 7 6 5 6 6 6 7 6 5 5 5 4 5 5 6 6 8 8 9
3 3 4 4 3 3 4 4 5 6 7 7 6 6 6 6 6 5 3 2 2 3 3 5 7 7 6 8 8 7 7 8 8 6 7 8 7 7 7 6 6 6 5 4 5 6 5 5 4 4 6 6 6 5 5 5 4 5 5 5 4 3 3
3 3 2 2 1 4 5 5 5 5 6 5 5 5 6 6 6 5 5 4 3 3 3 4 6 6 6 7 5 5 6 8 11 10 7 7 7 7 7 7 6 7 6 5 3 4 6 5 5 5 4 4 5 6 5 5 4 4 3 4 4 3 3
3 3 3 3 2 4 5 5 5 5 6 5 4 5 6 6 7 7 7 5 3 4 4 4 4 5 5 5 5 5 5 5 5 6 7 7 8 7 5 6 5 5 6 5 2 2 2 5 5 5 5 4 4 5 4 3 4 2 3 3 5 4 3
3 4 3 3 4 4 5 4 6 6 5 4 4 5 6 6 6 6 7 6 5 3 4 3 4 4 5 4 5 5 5 5 5 5 6 7 7 7 8 9 9 7 5 5 9 9 9 7 3 3 6 6 4 3 3 4 4 5 5 4 5 5 4
3 3 3 3 5 5 5 4 4 5 5 4 4 5 5 5 6 6 7 7 6 5 4 4 5 5 5 5 4 5 5 5 5 4 5 6 7 7 8 6 8 12 12 10 10 11 12 11 12 10 6 7 6 6 12 11 8 5 2 0 2 2 2
2 3 3 3 4 4 4 4 5 5 4 3 4 4 4 5 5 5 5 6 6 5 5 4 6 6 5 4 4 5 5 4 5 5 5 4 4 5 7 7 7 6 10 11 10 11 13 13 12 12 12 11 10 7 3 4 3 2 1 4 3 3 3
Wind_Direction
182 190 178 155 166 167 168 168 165 165 167 167 168 165 166 168 168 166 169 173 174 174 179 175 177 179 187 189 185 180 171 171 168 176 178 181 180 180 181 194 194 194 187 189 201 203 208 203 201 206 204 212 208 214 219 216 220 221 209 215 212 219 217
187 191 183 162 165 169 170 170 168 162 167 167 167 166 168 170 169 170 173 175 175 177 177 179 177 181 186 190 188 183 173 174 171 174 176 178 186 184 184 189 193 197 199 201 200 208 200 207 202 205 204 207 215 212 213 216 214 210 197 207 194 208 217
193 187 188 171 167 168 171 170 171 167 166 167 166 167 172 171 173 174 171 174 176 176 177 180 182 178 180 183 185 191 179 172 170 174 176 183 186 187 193 194 198 195 206 209 202 207 205 204 204 207 200 203 210 211 206 209 212 196 200 201 205 197 216
196 187 190 184 168 168 169 173 174 171 170 170 169 171 171 172 174 174 172 175 175 175 179 182 184 181 179 178 184 187 186 182 178 179 181 179 182 184 185 195 203 204 202 209 208 205 205 201 206 207 206 200 206 207 202 200 204 189 200 200 218 218 217
199 186 187 185 174 167 171 174 175 171 173 174 173 171 169 170 172 172 176 178 177 179 181 181 182 184 183 179 184 186 189 187 185 184 183 182 178 178 185 190 194 202 209 212 211 207 205 201 204 205 207 195 205 200 204 205 207 202 206 201 217 224 234
197 189 183 184 180 175 175 175 174 170 171 173 173 172 169 170 171 173 176 176 182 181 177 176 181 181 185 186 183 186 186 192 193 185 185 184 177 183 190 195 194 199 200 212 210 212 202 194 199 199 200 193 198 200 204 204 215 203 208 201 218 218 225
198 187 181 190 180 180 176 174 173 170 171 173 172 172 168 171 173 174 173 177 179 179 179 180 184 182 186 181 188 181 189 194 195 193 188 186 185 186 191 195 200 202 201 195 204 200 194 188 185 188 192 188 196 197 199 204 212 212 194 202 220 227 227
196 180 192 187 189 177 176 172 173 168 169 168 168 170 171 172 171 172 175 176 178 178 181 181 184 186 182 184 184 185 190 196 197 197 189 192 193 195 191 196 198 203 199 196 203 187 188 192 189 183 184 183 194 197 201 203 210 212 191 202 211 230 219
87 29 15 346 299 203 173 173 170 169 167 167 168 172 171 171 173 174 175 173 176 177 183 182 184 183 182 184 184 187 190 191 196 198 198 197 194 198 197 198 202 196 200 204 204 199 188 192 193 189 193 196 190 193 199 207 205 206 197 204 207 215 226
65 54 33 15 12 355 309 180 168 167 170 167 166 171 172 174 172 173 173 173 174 179 180 182 180 180 182 184 188 189 188 191 194 196 201 204 199 198 199 201 204 197 199 201 199 196 199 190 190 188 195 205 207 201 205 208 208 201 200 201 204 207 222
131 111 112 95 338 325 308 271 175 173 170 172 172 171 171 171 171 173 173 173 176 180 180 180 176 177 183 184 186 189 190 193 193 198 199 206 202 202 199 200 202 195 202 198 199 196 193 194 186 189 197 207 211 211 211 211 208 203 203 205 201 206 214
160 151 156 155 172 268 294 257 220 180 171 172 174 172 173 172 172 174 174 178 178 178 178 179 174 176 178 182 184 188 193 193 195 199 202 202 200 200 197 198 195 191 194 190 194 197 196 197 193 189 201 208 212 209 208 208 206 198 195 196 200 205 212
163 159 162 160 161 190 294 261 129 19 285 189 172 175 173 172 175 177 177 180 180 180 178 178 175 175 176 181 185 187 192 193 194 196 199 200 201 197 185 181 189 197 205 188 180 185 196 205 200 198 196 204 200 196 194 196 195 196 205 202 195 201 209
10 32 91 133 137 181 190 201 152 140 109 26 308 188 176 174 176 178 179 181 182 182 179 177 176 177 178 180 185 188 193 192 192 193 194 198 198 201 194 186 188 194 197 187 181 188 185 194 198 199 195 194 193 190 185 186 193 200 206 213 207 201 211
33 36 37 17 16 32 204 195 171 144 114 124 118 70 0 245 177 181 183 181 182 180 181 177 176 178 180 182 185 190 190 189 188 187 189 195 202 205 200 191 190 197 176 203 195 192 191 188 189 188 195 192 192 192 188 188 196 197 202 215 214 195 201
76 77 93 93 28 341 343 333 335 41 114 114 131 145 169 212 175 170 183 189 182 180 180 172 177 178 182 186 190 189 185 184 182 181 181 190 201 204 199 196 188 179 188 211 199 197 202 186 186 185 189 189 191 189 190 197 194 193 206 201 197 193 190
73 154 151 140 134 126 38 23 32 5 359 24 80 145 164 170 172 153 150 134 79 30 165 170 177 183 184 190 190 185 181 175 181 177 178 189 198 203 195 198 198 193 192 198 201 193 197 191 188 191 187 189 186 187 177 141 81 69 70 72 283 191 182
2 345 14 17 53 72 67 65 59 65 26 2 350 359 22 239 160 113 102 108 120 140 153 156 167 175 179 174 165 161 159 164 168 171 175 165 173 178 187 190 201 200 195 198 197 201 196 196 195 194 192 177 173 181 156 157 114 111 111 123 137 156 178
14 48 30 24 53 70 61 47 54 59 33 30 25 1 354 338 313 123 122 117 136 145 162 165 158 151 148 150 152 162 164 163 165 167 172 167 140 142 152 178 194 202 201 197 188 166 187 200 183 166 151 140 150 156 148 145 127 134 143 151 149 173 163
62 78 69 54 56 124 146 129 43 19 14 19 29 18 18 335 351 349 119 131 136 134 103 92 135 145 148 154 156 153 155 160 161 162 158 140 132 112 105 115 137 156 154 143 146 161 166 160 156 153 154 155 152 147 143 146 147 206 207 193 179 173 154
44 71 82 76 69 57 32 117 131 46 347 14 29 36 53 359 6 350 326 98 129 118 107 102 30 166 151 142 137 138 139 138 140 148 147 141 126 105 93 100 107 98 108 150 162 157 157 151 148 154 151 146 145 146 137 116 25 291 255 235 215 189 151
38 61 72 120 137 140 97 86 88 110 78 353 11 18 81 113 90 73 1 326 6 84 128 140 156 160 114 86 68 61 78 119 146 163 161 150 129 114 105 99 108 111 107 97 82 94 113 98 105 121 124 128 136 132 119 80 22 352 320 286 252 215 173
55 51 56 42 25 75 107 105 93 95 109 92 1 356 328 111 105 109 96 61 7 354 15 28 70 100 80 79 69 87 90 44 344 314 329 78 106 117 133 144 137 111 115 112 115 108 92 102 89 89 97 93 86 102 95 73 14 1 341 314 286 250 187
51 75 76 59 28 20 76 84 79 77 87 83 55 23 33 67 60 70 86 86 70 53 24 352 355 5 40 50 53 54 60 66 60 20 16 38 72 109 131 144 152 144 156 149 144 123 120 111 93 68 67 75 79 81 92 82 25 17 356 337 302 267 192
34 32 46 63 85 77 46 79 91 96 96 94 82 76 84 92 89 78 79 93 101 112 146 202 225 196 64 58 26 47 69 342 234 164 121 101 94 136 164 177 162 174 166 146 132 128 125 112 103 93 72 70 80 86 90 84 33 23 14 2 338 295 204
10 36 58 68 59 62 56 70 80 71 61 68 108 112 93 96 102 103 105 104 107 105 125 205 273 47 87 112 154 153 96 56 6 222 164 137 157 194 209 200 152 117 100 118 131 130 126 119 114 114 109 102 97 80 76 79 52 31 33 28 20 334 242
21 32 52 56 53 53 50 46 62 69 78 73 48 85 88 68 75 82 89 94 90 96 122 134 106 98 92 29 252 181 83 67 56 64 126 168 184 182 191 182 151 127 113 135 136 127 123 124 122 111 105 94 91 91 75 77 72 49 41 31 17 1 279
33 34 43 57 59 49 56 51 43 50 53 57 51 57 98 101 91 92 93 85 81 85 77 76 88 106 127 149 85 65 84 87 92 97 111 162 180 195 197 190 161 153 177 158 133 136 134 129 120 113 109 106 95 88 82 73 72 61 46 40 33 27 8
29 33 49 54 51 48 67 68 63 58 55 37 44 48 83 100 102 103 99 91 86 83 85 91 88 94 92 86 75 57 63 63 67 70 65 65 58 99 153 151 158 152 137 140 141 135 132 127 123 120 117 108 90 83 81 77 72 60 55 47 46 39 35
33 37 47 55 65 65 67 71 65 66 53 41 35 30 43 79 93 94 93 94 100 94 94 89 88 80 76 72 66 65 57 57 66 67 63 65 65 55 43 34 37 88 128 141 141 135 125 117 119 116 113 109 105 98 95 91 84 77 73 61 55 51 40
42 46 46 52 47 40 48 63 69 60 46 28 28 23 26 51 95 100 96 110 113 110 104 100 93 93 87 79 78 71 58 49 45 44 49 53 67 74 67 62 51 50 34 62 84 97 104 107 114 116 120 117 113 116 98 63 65 66 77 75 65 59 57
33 45 54 56 50 48 55 59 54 53 53 29 16 14 15 19 46 89 110 118 105 104 104 102 97 89 92 92 82 77 84 76 57 42 36 44 50 58 59 67 63 61 61 74 68 59 67 103 117 120 119 120 118 97 83 73 63 53 43 56 62 58 52
43 50 71 72 43 65 63 60 50 41 41 41 21 33 32 33 32 33 31 62 84 81 80 88 92 94 87 83 85 87 83 84 86 80 54 35 39 52 53 50 61 78 68 62 94 111 112 101 94 98 119 118 110 99 89 73 56 50 47 42 51 47 50
95 62 16 26 48 97 83 76 77 65 57 39 10 24 35 35 24 18 33 35 78 111 100 109 113 109 104 99 101 95 96 95 91 84 73 57 45 32 37 42 51 58 50 51 34 79 96 96 101 91 80 86 100 98 88 76 71 50 30 19 26 21 27
99 113 92 78 51 72 92 101 85 75 66 42 18 27 33 30 21 15 15 14 45 128 135 136 121 109 100 98 93 81 79 79 88 94 90 86 69 57 31 27 2 51 75 47 81 14 92 132 117 105 102 111 117 107 97 92 86 81 41 50 24 9 12
85 82 82 95 87 79 84 89 99 90 76 58 50 46 44 33 24 16 10 8 12 50 106 109 108 111 109 104 99 102 97 91 86 90 96 96 100 92 71 53 52 27 37 49 19 36 63 85 100 114 127 105 44 20 115 125 102 102 72 48 28 12 3
97 84 75 75 82 75 83 83 84 82 73 66 64 56 48 42 28 21 13 8 9 28 62 90 113 124 137 128 121 123 114 108 94 88 93 103 109 104 100 82 44 39 33 27 35 47 50 70 80 69 62 114 111 56 55 80 88 89 74 19 266 264 288
122 129 112 91 107 101 86 76 72 79 87 80 76 72 60 49 30 23 20 18 13 16 51 68 104 127 138 126 126 122 112 98 111 105 96 78 84 106 112 107 93 50 30 34 33 41 51 53 65 80 87 92 104 113 81 61 83 120 248 253 252 296 11